Regional Weather Roundup
Issued by NWS Goodland, KS

Home | Current Version | Previous Version | Text Only | Print | Product List | Glossary On
Versions: 1 2 3 4 5 6 7 8 9 10 11 12 13 14 15 16 17 18 19 20 21 22 23 24 25 26 27 28 29 30 31 32 33 34 35 36 37 38 39 40 41 42 43 44 45 46 47 48 49 50
000
ASUS43 KGLD 051108
RWRGLD

GOODLAND FORECAST AREA HOURLY WEATHER ROUNDUP
NATIONAL WEATHER SERVICE GOODLAND KS
400 AM MST MON DEC 05 2016

...OFFICIAL OBSERVATIONS...

CITY           SKY/WX    TMP DP  RH WIND       PRES   REMARKS
GOODLAND KS    CLOUDY    31  16  54 SW15      29.60F
HILL CITY KS   CLOUDY    41  25  53 S12G21    29.68F
IMPERIAL NEB   CLOUDY    30  18  60 SE7       29.61F
MCCOOK NEB     CLOUDY    31  19  61 S5        29.64F
AKRON CO       CLOUDY    39  13  34 N5        29.59F
BURLINGTON CO  CLOUDY    27  13  55 W10       29.62F WCI  17
LIMON CO       CLOUDY    21  14  74 N6        29.63F
$$

...UNOFFICIAL OBSERVATIONS...

CITY           SKY/WX    TMP DP  RH WIND       PRES   REMARKS
COLBY KS       CLEAR     34  25  69 SW10      29.64F
LENORA KS        N/A     40  32  73 MISG        N/A
NORTON KS      CLEAR     39  19  45 SW10      29.65F
SHARON SPRINGS   N/A     29  19  66 SW9         N/A
TRENTON NEB      N/A     28  32 100 CALM        N/A
KIT CARSON CO    N/A     16   8  70 CALM        N/A
YUMA CO        FAIR      30  14  51 W10       29.58F
$$




USA.gov is the U.S. government's official web portal to all federal, state and local government web resources and services.